TRA62A GCLP-EHAM

Flight info

Callsign TRA62A
Flight time 4h 4m
Altitude 36000
Route KORAL UN871 SONSO DCT ADUBI DCT VJF DCT SVL/N0446F380 DCT HIJ DCT RUSEM DCT SOTUK DCT USOKO DCT TLD DCT SIE DCT EDIGO DCT DGO DCT CEGAM L176 LUSEM DCT LULUT DCT ADABI DCT BOKNO UN858 VANAD UN874 ARSAF DCT EGOZE DCT CMB DCT VEKIN DCT ADUTO N873 FERDI/N0398F240 Y18 DENUT
Aircraft B738/M-SDE2E3FGHIRWXY/LB1

Departure

Time 2026-04-28 16:12
Airport Gran Canaria Airport (GCLP)

Arrival

Time 2026-04-28 20:17
Airport Amsterdam Airport Schiphol (EHAM)
Time Latitude Longitude Altitude Speed Heading
2026-04-28 15:42 27.93687 -15.38890 84 ft 0 kts 291°
2026-04-28 15:59 27.93685 -15.38882 85 ft 2 kts 291°
2026-04-28 16:00 27.93677 -15.38861 83 ft 3 kts 291°
2026-04-28 16:00 27.93670 -15.38841 82 ft 3 kts 287°
2026-04-28 16:00 27.93668 -15.38821 84 ft 3 kts 252°
2026-04-28 16:00 27.93677 -15.38803 86 ft 3 kts 218°
2026-04-28 16:01 27.93692 -15.38792 83 ft 2 kts 202°
2026-04-28 16:01 27.93695 -15.38791 87 ft 0 kts 201°
2026-04-28 16:03 27.93686 -15.38795 105 ft 5 kts 201°
2026-04-28 16:03 27.93632 -15.38820 84 ft 10 kts 201°
2026-04-28 16:03 27.93562 -15.38851 84 ft 11 kts 201°
2026-04-28 16:04 27.93483 -15.38876 82 ft 12 kts 184°
2026-04-28 16:04 27.93428 -15.38808 74 ft 13 kts 109°
2026-04-28 16:04 27.93355 -15.38777 69 ft 14 kts 199°
2026-04-28 16:04 27.93264 -15.38817 74 ft 14 kts 201°
2026-04-28 16:05 27.93168 -15.38861 65 ft 16 kts 205°
2026-04-28 16:05 27.93057 -15.38917 70 ft 17 kts 201°
2026-04-28 16:05 27.92946 -15.38966 71 ft 17 kts 201°
2026-04-28 16:05 27.92839 -15.39013 83 ft 16 kts 202°
2026-04-28 16:06 27.92735 -15.39059 88 ft 16 kts 201°
2026-04-28 16:06 27.92628 -15.39106 90 ft 18 kts 201°
2026-04-28 16:06 27.92514 -15.39156 93 ft 17 kts 201°
2026-04-28 16:06 27.92404 -15.39205 96 ft 17 kts 201°
2026-04-28 16:07 27.92297 -15.39251 98 ft 16 kts 201°
2026-04-28 16:07 27.92195 -15.39297 97 ft 15 kts 200°
2026-04-28 16:07 27.92020 -15.39298 90 ft 0 kts 177°
2026-04-28 16:08 27.92019 -15.39298 90 ft 0 kts 176°
2026-04-28 16:10 27.91949 -15.39289 88 ft 13 kts 160°
2026-04-28 16:11 27.91982 -15.39192 87 ft 3 kts 21°
2026-04-28 16:11 27.92339 -15.39035 73 ft 85 kts 21°
2026-04-28 16:12 27.94191 -15.38198 321 ft 176 kts 22°
2026-04-28 16:12 27.95316 -15.37668 1148 ft 177 kts 21°
2026-04-28 16:13 27.97742 -15.36657 2378 ft 204 kts 19°
2026-04-28 16:13 27.99149 -15.36080 2701 ft 227 kts 20°
2026-04-28 16:13 28.02371 -15.34688 3482 ft 266 kts 21°
2026-04-28 16:14 28.05851 -15.33171 4622 ft 271 kts 21°
2026-04-28 16:14 28.09403 -15.31623 6311 ft 276 kts 21°
2026-04-28 16:15 28.13037 -15.30039 7918 ft 283 kts 22°
2026-04-28 16:15 28.14668 -15.28791 8659 ft 287 kts 48°
2026-04-28 16:15 28.15869 -15.26976 9458 ft 289 kts 56°
2026-04-28 16:16 28.18142 -15.23057 10520 ft 315 kts 57°
2026-04-28 16:16 28.19378 -15.20898 10712 ft 338 kts 57°
2026-04-28 16:17 28.21598 -15.17041 11397 ft 360 kts 57°
2026-04-28 16:17 28.22981 -15.14650 12099 ft 363 kts 57°
2026-04-28 16:17 28.24370 -15.12255 12818 ft 366 kts 57°
2026-04-28 16:17 28.25780 -15.09830 13494 ft 370 kts 57°
2026-04-28 16:18 28.27202 -15.07385 14149 ft 373 kts 57°
2026-04-28 16:18 28.28644 -15.04908 14805 ft 377 kts 57°
2026-04-28 16:18 28.30096 -15.02412 15446 ft 381 kts 57°
2026-04-28 16:18 28.31560 -14.99894 16070 ft 384 kts 57°
2026-04-28 16:19 28.33036 -14.97356 16676 ft 387 kts 57°
2026-04-28 16:19 28.34532 -14.94781 17259 ft 391 kts 57°
2026-04-28 16:19 28.36019 -14.92221 17826 ft 394 kts 57°
2026-04-28 16:19 28.37534 -14.89610 18390 ft 398 kts 57°
2026-04-28 16:20 28.39062 -14.86977 18940 ft 401 kts 57°
2026-04-28 16:20 28.40603 -14.84317 19477 ft 404 kts 57°
2026-04-28 16:20 28.42153 -14.81642 19997 ft 407 kts 57°
2026-04-28 16:20 28.43720 -14.78936 20509 ft 411 kts 57°
2026-04-28 16:21 28.45296 -14.76211 21002 ft 414 kts 57°
2026-04-28 16:21 28.46884 -14.73465 21476 ft 417 kts 57°
2026-04-28 16:21 28.48481 -14.70700 21940 ft 420 kts 57°
2026-04-28 16:21 28.50090 -14.67914 22399 ft 423 kts 57°
2026-04-28 16:22 28.51691 -14.65138 22822 ft 425 kts 57°
2026-04-28 16:22 28.53316 -14.62321 23245 ft 428 kts 57°
2026-04-28 16:22 28.54958 -14.59472 23658 ft 431 kts 57°
2026-04-28 16:22 28.56605 -14.56611 24058 ft 434 kts 57°
2026-04-28 16:23 28.58265 -14.53727 24454 ft 436 kts 57°
2026-04-28 16:23 28.59928 -14.50835 24831 ft 439 kts 57°
2026-04-28 16:23 28.61609 -14.47910 25208 ft 441 kts 57°
2026-04-28 16:23 28.63295 -14.44974 25575 ft 444 kts 57°
2026-04-28 16:24 28.64967 -14.42060 25923 ft 446 kts 57°
2026-04-28 16:24 28.66670 -14.39092 26261 ft 448 kts 57°
2026-04-28 16:24 28.68377 -14.36112 26599 ft 451 kts 57°
2026-04-28 16:24 28.70096 -14.33111 26909 ft 453 kts 57°
2026-04-28 16:25 28.71821 -14.30097 27217 ft 455 kts 57°
2026-04-28 16:25 28.73555 -14.27064 27520 ft 457 kts 57°
2026-04-28 16:25 28.75295 -14.24020 27811 ft 459 kts 57°
2026-04-28 16:25 28.77041 -14.20961 28096 ft 461 kts 57°
2026-04-28 16:26 28.78795 -14.17887 28373 ft 463 kts 57°
2026-04-28 16:26 28.80556 -14.14798 28646 ft 465 kts 57°
2026-04-28 16:26 28.82323 -14.11697 28905 ft 467 kts 57°
2026-04-28 16:26 28.84095 -14.08585 29162 ft 469 kts 57°
2026-04-28 16:27 28.85875 -14.05457 29411 ft 471 kts 57°
2026-04-28 16:27 28.87662 -14.02313 29656 ft 473 kts 57°
2026-04-28 16:27 28.91217 -13.96053 30271 ft 472 kts 57°
2026-04-28 16:28 28.92999 -13.92911 30652 ft 470 kts 57°
2026-04-28 16:28 28.94777 -13.89774 30996 ft 469 kts 57°
2026-04-28 16:28 28.96546 -13.86649 31285 ft 469 kts 57°
2026-04-28 16:28 28.98323 -13.83511 31565 ft 469 kts 57°
2026-04-28 16:29 29.01855 -13.77262 32192 ft 467 kts 57°
2026-04-28 16:29 29.05381 -13.71014 32757 ft 467 kts 57°
2026-04-28 16:30 29.07118 -13.67932 33029 ft 466 kts 57°
2026-04-28 16:30 29.08873 -13.64817 33309 ft 465 kts 57°
2026-04-28 16:30 29.10626 -13.61703 33575 ft 465 kts 57°
2026-04-28 16:30 29.12371 -13.58601 33827 ft 465 kts 57°
2026-04-28 16:31 29.14123 -13.55484 34077 ft 464 kts 57°
2026-04-28 16:31 29.15871 -13.52372 34332 ft 463 kts 57°
2026-04-28 16:31 29.17627 -13.49280 34582 ft 463 kts 56°
2026-04-28 16:31 29.19446 -13.46245 34801 ft 463 kts 55°
2026-04-28 16:32 29.21301 -13.43240 35036 ft 462 kts 54°
2026-04-28 16:32 29.25022 -13.37252 35479 ft 461 kts 54°
2026-04-28 16:32 29.26853 -13.34286 35687 ft 461 kts 55°
2026-04-28 16:33 29.28696 -13.31282 35896 ft 460 kts 55°
2026-04-28 16:33 29.29938 -13.29251 36033 ft 460 kts 55°
2026-04-28 16:33 29.32364 -13.25272 36266 ft 460 kts 55°
2026-04-28 16:33 29.34194 -13.22265 36425 ft 461 kts 55°
2026-04-28 16:34 29.36029 -13.19246 36595 ft 461 kts 55°
2026-04-28 16:34 29.37863 -13.16226 36777 ft 460 kts 55°
2026-04-28 16:34 29.39694 -13.13210 36937 ft 460 kts 55°
2026-04-28 16:34 29.41526 -13.10190 36996 ft 462 kts 55°
2026-04-28 16:35 29.45210 -13.04112 37000 ft 462 kts 55°
2026-04-28 16:35 29.48869 -12.98067 36998 ft 459 kts 55°
2026-04-28 16:36 29.52503 -12.92054 37000 ft 457 kts 55°
2026-04-28 16:36 29.56097 -12.86099 37001 ft 456 kts 55°
2026-04-28 16:37 29.59706 -12.80109 37002 ft 455 kts 55°
2026-04-28 16:38 29.65111 -12.71122 37004 ft 456 kts 55°
2026-04-28 16:38 29.68723 -12.65105 37004 ft 457 kts 55°
2026-04-28 16:39 29.72314 -12.59117 37004 ft 459 kts 55°
2026-04-28 16:39 29.75936 -12.53041 37006 ft 461 kts 56°
2026-04-28 16:40 29.79555 -12.46929 37003 ft 463 kts 56°
2026-04-28 16:40 29.83185 -12.40789 37002 ft 464 kts 56°
2026-04-28 16:41 29.86822 -12.34630 37001 ft 465 kts 56°
2026-04-28 16:41 29.90466 -12.28455 37000 ft 465 kts 56°
2026-04-28 16:42 29.94098 -12.22288 37000 ft 464 kts 56°
2026-04-28 16:42 29.97696 -12.16170 37000 ft 463 kts 56°
2026-04-28 16:43 30.01479 -12.10164 36989 ft 462 kts 47°
2026-04-28 16:43 30.06318 -12.05334 37006 ft 460 kts 38°
2026-04-28 16:44 30.11384 -12.00815 37002 ft 459 kts 38°
2026-04-28 16:44 30.16425 -11.96287 37000 ft 458 kts 38°
2026-04-28 16:45 30.21399 -11.91761 37001 ft 458 kts 38°
2026-04-28 16:45 30.26393 -11.87187 37002 ft 458 kts 38°
2026-04-28 16:46 30.31385 -11.82603 37002 ft 458 kts 38°
2026-04-28 16:46 30.36381 -11.78010 37002 ft 459 kts 38°
2026-04-28 16:47 30.41392 -11.73400 37002 ft 459 kts 38°
2026-04-28 16:47 30.46393 -11.68792 37002 ft 460 kts 38°
2026-04-28 16:48 30.51378 -11.64194 37002 ft 460 kts 38°
2026-04-28 16:48 30.56395 -11.59559 37002 ft 461 kts 38°
2026-04-28 16:49 30.61421 -11.54910 37001 ft 462 kts 38°
2026-04-28 16:49 30.66437 -11.50263 37001 ft 462 kts 38°
2026-04-28 16:50 30.71469 -11.45596 37001 ft 462 kts 38°
2026-04-28 16:50 30.76497 -11.40925 37001 ft 462 kts 38°
2026-04-28 16:51 30.81490 -11.36281 37001 ft 462 kts 38°
2026-04-28 16:51 30.86509 -11.31606 36999 ft 461 kts 39°
2026-04-28 16:52 30.91509 -11.26942 36998 ft 460 kts 39°
2026-04-28 16:52 30.96507 -11.22274 37003 ft 460 kts 39°
2026-04-28 16:53 31.01469 -11.17633 37001 ft 460 kts 39°
2026-04-28 16:53 31.06457 -11.12962 37002 ft 460 kts 39°
2026-04-28 16:54 31.11445 -11.08284 37001 ft 460 kts 39°
2026-04-28 16:54 31.16436 -11.03596 37001 ft 460 kts 39°
2026-04-28 16:55 31.21426 -10.98903 37001 ft 460 kts 39°
2026-04-28 16:55 31.26416 -10.94204 37001 ft 461 kts 39°
2026-04-28 16:56 31.31403 -10.89500 37001 ft 461 kts 39°
2026-04-28 16:56 31.36400 -10.84780 37001 ft 461 kts 39°
2026-04-28 16:57 31.41356 -10.80093 37001 ft 461 kts 39°
2026-04-28 16:57 31.46349 -10.75364 37001 ft 461 kts 39°
2026-04-28 16:58 31.51343 -10.70628 37001 ft 461 kts 39°
2026-04-28 16:58 31.56342 -10.65880 37001 ft 461 kts 39°
2026-04-28 16:59 31.61327 -10.61138 37001 ft 461 kts 39°
2026-04-28 16:59 31.66273 -10.56427 37001 ft 461 kts 39°
2026-04-28 17:00 31.71250 -10.51680 37001 ft 461 kts 39°
2026-04-28 17:00 31.76224 -10.46929 37001 ft 461 kts 39°
2026-04-28 17:01 31.81199 -10.42169 37001 ft 461 kts 39°
2026-04-28 17:01 31.86170 -10.37407 37001 ft 460 kts 39°
2026-04-28 17:02 31.91143 -10.32637 37001 ft 460 kts 39°
2026-04-28 17:02 31.96076 -10.27897 37001 ft 460 kts 39°
2026-04-28 17:03 32.03514 -10.20739 37001 ft 460 kts 39°
2026-04-28 17:03 32.08477 -10.15954 37001 ft 460 kts 39°
2026-04-28 17:04 32.15906 -10.08778 37001 ft 460 kts 39°
2026-04-28 17:05 32.23321 -10.01599 37001 ft 460 kts 39°
2026-04-28 17:06 32.30747 -9.94396 37001 ft 460 kts 39°
2026-04-28 17:06 32.37346 -9.87981 37001 ft 460 kts 39°
2026-04-28 17:07 32.42295 -9.83161 37001 ft 461 kts 39°
2026-04-28 17:07 32.47246 -9.78333 37001 ft 461 kts 39°
2026-04-28 17:08 32.52202 -9.73492 37001 ft 461 kts 39°
2026-04-28 17:08 32.57117 -9.68685 37001 ft 461 kts 39°
2026-04-28 17:09 32.62059 -9.63844 37001 ft 461 kts 39°
2026-04-28 17:09 32.67002 -9.58994 37001 ft 461 kts 39°
2026-04-28 17:10 32.71925 -9.54158 37001 ft 461 kts 39°
2026-04-28 17:10 32.76860 -9.49302 37001 ft 461 kts 39°
2026-04-28 17:11 32.81800 -9.44435 37001 ft 461 kts 39°
2026-04-28 17:11 32.86735 -9.39564 37001 ft 461 kts 39°
2026-04-28 17:12 32.91665 -9.34692 37001 ft 461 kts 39°
2026-04-28 17:12 32.96598 -9.29808 37001 ft 461 kts 40°
2026-04-28 17:13 33.01533 -9.24917 37001 ft 461 kts 40°
2026-04-28 17:13 33.06423 -9.20062 37001 ft 461 kts 40°
2026-04-28 17:14 33.11351 -9.15162 37001 ft 461 kts 40°
2026-04-28 17:14 33.16281 -9.10253 37001 ft 461 kts 40°
2026-04-28 17:15 33.21197 -9.05349 37001 ft 461 kts 40°
2026-04-28 17:15 33.26114 -9.00439 37001 ft 460 kts 40°
2026-04-28 17:16 33.31027 -8.95523 37001 ft 460 kts 40°
2026-04-28 17:16 33.35916 -8.90626 37001 ft 460 kts 40°
2026-04-28 17:17 33.40825 -8.85700 37001 ft 460 kts 40°
2026-04-28 17:17 33.45728 -8.80773 37001 ft 460 kts 40°
2026-04-28 17:18 33.50638 -8.75832 37001 ft 461 kts 40°
2026-04-28 17:18 33.55537 -8.70893 37001 ft 461 kts 40°
2026-04-28 17:19 33.60446 -8.65938 37001 ft 461 kts 40°
2026-04-28 17:19 33.65325 -8.61004 37001 ft 461 kts 40°
2026-04-28 17:20 33.69430 -8.56847 37001 ft 461 kts 40°
2026-04-28 17:20 33.75130 -8.51068 37001 ft 461 kts 40°
2026-04-28 17:21 33.80028 -8.46092 37001 ft 461 kts 40°
2026-04-28 17:22 33.87375 -8.38614 37001 ft 461 kts 40°
2026-04-28 17:22 33.92265 -8.33628 37001 ft 461 kts 40°
2026-04-28 17:23 33.99568 -8.26166 37001 ft 461 kts 40°
2026-04-28 17:23 34.04458 -8.21160 37001 ft 461 kts 40°
2026-04-28 17:24 34.09340 -8.16154 37001 ft 461 kts 40°
2026-04-28 17:24 34.14232 -8.11130 37001 ft 461 kts 40°
2026-04-28 17:25 34.21519 -8.03632 37001 ft 461 kts 40°
2026-04-28 17:26 34.26397 -7.98603 37001 ft 461 kts 40°
2026-04-28 17:26 34.31281 -7.93560 37001 ft 461 kts 40°
2026-04-28 17:27 34.36133 -7.88541 37001 ft 461 kts 40°
2026-04-28 17:27 34.41005 -7.83494 37001 ft 461 kts 40°
2026-04-28 17:28 34.45880 -7.78437 37001 ft 461 kts 40°
2026-04-28 17:28 34.53149 -7.70879 37001 ft 461 kts 40°
2026-04-28 17:29 34.58012 -7.65814 37001 ft 461 kts 40°
2026-04-28 17:30 34.65302 -7.58205 37001 ft 461 kts 40°
2026-04-28 17:30 34.72588 -7.50581 37001 ft 461 kts 40°
2026-04-28 17:31 34.79869 -7.42944 37001 ft 461 kts 41°
2026-04-28 17:32 34.87140 -7.35299 37001 ft 461 kts 41°
2026-04-28 17:32 34.91959 -7.30223 37001 ft 461 kts 41°
2026-04-28 17:33 34.96809 -7.25105 37001 ft 461 kts 41°
2026-04-28 17:33 35.00864 -7.20819 37001 ft 461 kts 41°
2026-04-28 17:34 35.06497 -7.14857 37001 ft 461 kts 41°
2026-04-28 17:34 35.11331 -7.09731 37001 ft 461 kts 41°
2026-04-28 17:35 35.16173 -7.04588 37001 ft 461 kts 41°
2026-04-28 17:35 35.21013 -6.99440 37001 ft 461 kts 41°
2026-04-28 17:36 35.25845 -6.94290 37001 ft 461 kts 41°
2026-04-28 17:36 35.30677 -6.89133 37001 ft 461 kts 41°
2026-04-28 17:37 35.35477 -6.84001 37001 ft 461 kts 41°
2026-04-28 17:37 35.40302 -6.78833 37001 ft 461 kts 41°
2026-04-28 17:38 35.45131 -6.73654 37001 ft 461 kts 41°
2026-04-28 17:38 35.49960 -6.68466 37001 ft 461 kts 41°
2026-04-28 17:39 35.54780 -6.63278 37001 ft 461 kts 41°
2026-04-28 17:40 35.62002 -6.55489 37001 ft 461 kts 41°
2026-04-28 17:40 35.66817 -6.50285 37001 ft 461 kts 41°
2026-04-28 17:41 35.71599 -6.45107 37001 ft 461 kts 41°
2026-04-28 17:41 35.76407 -6.39893 37001 ft 461 kts 41°
2026-04-28 17:42 35.81213 -6.34673 37001 ft 461 kts 41°
2026-04-28 17:42 35.86209 -6.29710 37007 ft 460 kts 35°
2026-04-28 17:43 35.91510 -6.25269 37000 ft 460 kts 34°
2026-04-28 17:43 35.96824 -6.20842 37002 ft 460 kts 34°
2026-04-28 17:44 36.02096 -6.16357 37001 ft 460 kts 34°
2026-04-28 17:44 36.07363 -6.11836 37001 ft 460 kts 34°
2026-04-28 17:45 36.12588 -6.07344 37001 ft 461 kts 34°
2026-04-28 17:45 36.17862 -6.02807 37001 ft 461 kts 34°
2026-04-28 17:46 36.23291 -5.98625 36995 ft 460 kts 23°
2026-04-28 17:46 36.29426 -5.96443 37006 ft 460 kts
2026-04-28 17:47 36.35780 -5.95369 37004 ft 461 kts
2026-04-28 17:47 36.42099 -5.94334 37001 ft 461 kts
2026-04-28 17:48 36.48481 -5.93232 37002 ft 462 kts
2026-04-28 17:48 36.54848 -5.92099 37000 ft 462 kts
2026-04-28 17:49 36.61214 -5.90958 37001 ft 462 kts
2026-04-28 17:49 36.67574 -5.89817 37000 ft 462 kts
2026-04-28 17:50 36.73942 -5.88674 37001 ft 461 kts
2026-04-28 17:50 36.80297 -5.87533 37000 ft 461 kts
2026-04-28 17:51 36.86611 -5.86397 37001 ft 460 kts
2026-04-28 17:51 36.91887 -5.85446 37001 ft 460 kts
2026-04-28 17:52 36.98225 -5.84302 37001 ft 460 kts
2026-04-28 17:52 37.07712 -5.82586 37001 ft 459 kts
2026-04-28 17:53 37.14080 -5.81432 37002 ft 459 kts
2026-04-28 17:53 37.20362 -5.80291 37001 ft 459 kts
2026-04-28 17:54 37.26679 -5.79142 37001 ft 459 kts
2026-04-28 17:54 37.33009 -5.77988 37001 ft 459 kts
2026-04-28 17:55 37.39323 -5.76836 37002 ft 459 kts
2026-04-28 17:55 37.45480 -5.74759 36996 ft 460 kts 25°
2026-04-28 17:56 37.51255 -5.71252 36999 ft 461 kts 26°
2026-04-28 17:56 37.57016 -5.67662 37003 ft 463 kts 26°
2026-04-28 17:57 37.62774 -5.64125 37001 ft 464 kts 26°
2026-04-28 17:57 37.68590 -5.60586 37001 ft 464 kts 25°
2026-04-28 17:58 37.74415 -5.57047 37000 ft 464 kts 25°
2026-04-28 17:58 37.80224 -5.53510 37000 ft 463 kts 25°
2026-04-28 17:59 37.86029 -5.49967 37000 ft 462 kts 26°
2026-04-28 17:59 37.91825 -5.46424 37000 ft 461 kts 26°
2026-04-28 18:00 37.97555 -5.42913 36999 ft 459 kts 26°
2026-04-28 18:00 38.03303 -5.39387 37000 ft 458 kts 26°
2026-04-28 18:01 38.09042 -5.35859 37001 ft 457 kts 26°
2026-04-28 18:01 38.14768 -5.32333 37001 ft 457 kts 26°
2026-04-28 18:02 38.20489 -5.28804 37003 ft 457 kts 26°
2026-04-28 18:02 38.26208 -5.25270 37002 ft 457 kts 26°
2026-04-28 18:03 38.31937 -5.21724 37003 ft 458 kts 26°
2026-04-28 18:03 38.37673 -5.18167 37003 ft 459 kts 26°
2026-04-28 18:04 38.43388 -5.14616 37002 ft 460 kts 26°
2026-04-28 18:04 38.49146 -5.11033 37002 ft 461 kts 26°
2026-04-28 18:05 38.54000 -5.08221 37000 ft 461 kts 22°
2026-04-28 18:05 38.60988 -5.04708 37000 ft 461 kts 21°
2026-04-28 18:06 38.66926 -5.01739 37029 ft 462 kts 21°
2026-04-28 18:06 38.69951 -5.00202 37183 ft 463 kts 21°
2026-04-28 18:06 38.72904 -4.98689 37419 ft 461 kts 21°
2026-04-28 18:07 38.75883 -4.97157 37648 ft 460 kts 21°
2026-04-28 18:07 38.78858 -4.95624 37837 ft 460 kts 21°
2026-04-28 18:07 38.81825 -4.94094 37961 ft 459 kts 21°
2026-04-28 18:07 38.84797 -4.92561 37998 ft 462 kts 21°
2026-04-28 18:08 38.90776 -4.89474 38003 ft 462 kts 22°
2026-04-28 18:08 38.96696 -4.86413 38001 ft 461 kts 22°
2026-04-28 18:09 39.02637 -4.83334 38000 ft 459 kts 22°
2026-04-28 18:09 39.08541 -4.80175 38002 ft 459 kts 25°
2026-04-28 18:10 39.14267 -4.76477 38009 ft 461 kts 27°
2026-04-28 18:10 39.19962 -4.72614 38005 ft 463 kts 27°
2026-04-28 18:11 39.25679 -4.68783 38003 ft 464 kts 27°
2026-04-28 18:11 39.31440 -4.64972 38000 ft 464 kts 27°
2026-04-28 18:12 39.37196 -4.61179 38001 ft 464 kts 27°
2026-04-28 18:12 39.42920 -4.57402 38000 ft 464 kts 27°
2026-04-28 18:13 39.48658 -4.53607 38001 ft 463 kts 27°
2026-04-28 18:13 39.54389 -4.49808 37999 ft 462 kts 27°
2026-04-28 18:14 39.60101 -4.46014 37999 ft 461 kts 27°
2026-04-28 18:14 39.65803 -4.42220 38000 ft 460 kts 27°
2026-04-28 18:15 39.71500 -4.38421 38001 ft 459 kts 27°
2026-04-28 18:15 39.77176 -4.34630 38001 ft 458 kts 27°
2026-04-28 18:16 39.82860 -4.30827 38001 ft 458 kts 27°
2026-04-28 18:16 39.88484 -4.27056 38002 ft 458 kts 27°
2026-04-28 18:17 39.94136 -4.23260 38002 ft 458 kts 27°
2026-04-28 18:17 39.99812 -4.19441 38002 ft 458 kts 27°
2026-04-28 18:18 40.05481 -4.15619 38004 ft 460 kts 27°
2026-04-28 18:18 40.10214 -4.12422 38006 ft 461 kts 27°
2026-04-28 18:19 40.16902 -4.07897 38003 ft 463 kts 27°
2026-04-28 18:19 40.22606 -4.04030 38001 ft 465 kts 27°
2026-04-28 18:20 40.28352 -4.00126 38000 ft 464 kts 27°
2026-04-28 18:20 40.34053 -3.96245 37992 ft 459 kts 27°
2026-04-28 18:21 40.39712 -3.92386 38005 ft 458 kts 27°
2026-04-28 18:21 40.45395 -3.88503 38008 ft 462 kts 27°
2026-04-28 18:22 40.51120 -3.84584 38008 ft 465 kts 27°
2026-04-28 18:22 40.56866 -3.80642 38004 ft 467 kts 27°
2026-04-28 18:23 40.62628 -3.76683 37999 ft 467 kts 27°
2026-04-28 18:23 40.68363 -3.72733 37900 ft 467 kts 26°
2026-04-28 18:24 40.73151 -3.69430 37864 ft 467 kts 26°
2026-04-28 18:24 40.79838 -3.64808 37863 ft 465 kts 26°
2026-04-28 18:25 40.85553 -3.60849 37865 ft 463 kts 26°
2026-04-28 18:26 40.94087 -3.54924 37875 ft 461 kts 26°
2026-04-28 18:26 40.99761 -3.50974 37883 ft 460 kts 26°
2026-04-28 18:27 41.05435 -3.47017 37884 ft 460 kts 26°
2026-04-28 18:27 41.11101 -3.43058 37880 ft 461 kts 26°
2026-04-28 18:28 41.16773 -3.39087 37887 ft 461 kts 26°
2026-04-28 18:28 41.22457 -3.35100 37893 ft 462 kts 26°
2026-04-28 18:29 41.28151 -3.31097 37887 ft 463 kts 26°
2026-04-28 18:29 41.33850 -3.27083 37887 ft 464 kts 26°
2026-04-28 18:30 41.39522 -3.23080 37885 ft 464 kts 26°
2026-04-28 18:30 41.45233 -3.19041 37891 ft 465 kts 26°
2026-04-28 18:31 41.50951 -3.14990 37873 ft 465 kts 26°
2026-04-28 18:31 41.56665 -3.10932 37895 ft 465 kts 25°
2026-04-28 18:32 41.62386 -3.06862 37880 ft 465 kts 25°
2026-04-28 18:32 41.68091 -3.02795 37888 ft 465 kts 25°
2026-04-28 18:33 41.73752 -2.98751 37891 ft 465 kts 25°
2026-04-28 18:33 41.79468 -2.94660 37896 ft 465 kts 25°
2026-04-28 18:34 41.85179 -2.90564 37901 ft 465 kts 25°
2026-04-28 18:34 41.90889 -2.86460 37912 ft 465 kts 25°
2026-04-28 18:35 41.96610 -2.82340 37913 ft 466 kts 25°
2026-04-28 18:35 42.02327 -2.78214 37920 ft 466 kts 26°
2026-04-28 18:36 42.08015 -2.74101 37915 ft 466 kts 26°
2026-04-28 18:36 42.13719 -2.69967 37915 ft 466 kts 26°
2026-04-28 18:37 42.18466 -2.66521 37920 ft 465 kts 26°
2026-04-28 18:37 42.24165 -2.62376 37913 ft 465 kts 26°
2026-04-28 18:38 42.29877 -2.58213 37911 ft 466 kts 26°
2026-04-28 18:38 42.35552 -2.54068 37910 ft 466 kts 26°
2026-04-28 18:39 42.41261 -2.49890 37912 ft 466 kts 26°
2026-04-28 18:39 42.46975 -2.45699 37901 ft 467 kts 26°
2026-04-28 18:40 42.52684 -2.41503 37907 ft 467 kts 26°
2026-04-28 18:40 42.58405 -2.37289 37901 ft 467 kts 26°
2026-04-28 18:41 42.64127 -2.33065 37903 ft 467 kts 26°
2026-04-28 18:41 42.69792 -2.28875 37907 ft 467 kts 26°
2026-04-28 18:42 42.75507 -2.24639 37912 ft 467 kts 26°
2026-04-28 18:42 42.81217 -2.20398 37922 ft 467 kts 26°
2026-04-28 18:43 42.86930 -2.16146 37920 ft 467 kts 26°
2026-04-28 18:43 42.92632 -2.11892 37929 ft 467 kts 26°
2026-04-28 18:44 42.98343 -2.07623 37923 ft 467 kts 26°
2026-04-28 18:44 43.06866 -2.01235 37935 ft 467 kts 26°
2026-04-28 18:45 43.12571 -1.96948 37949 ft 467 kts 26°
2026-04-28 18:45 43.18266 -1.92658 37952 ft 467 kts 26°
2026-04-28 18:46 43.23874 -1.88425 37943 ft 467 kts 26°
2026-04-28 18:46 43.29478 -1.84186 37938 ft 466 kts 26°
2026-04-28 18:47 43.35161 -1.79878 37939 ft 466 kts 26°
2026-04-28 18:47 43.40764 -1.75356 37942 ft 467 kts 30°
2026-04-28 18:48 43.46196 -1.70412 37937 ft 468 kts 31°
2026-04-28 18:48 43.51601 -1.65422 37940 ft 468 kts 31°
2026-04-28 18:49 43.56112 -1.61295 37940 ft 467 kts 31°
2026-04-28 18:49 43.62431 -1.55550 37938 ft 467 kts 31°
2026-04-28 18:50 43.67865 -1.50609 37936 ft 467 kts 31°
2026-04-28 18:50 43.73299 -1.45656 37939 ft 467 kts 31°
2026-04-28 18:51 43.78729 -1.40693 37926 ft 467 kts 31°
2026-04-28 18:51 43.84147 -1.35729 37929 ft 467 kts 31°
2026-04-28 18:52 43.89580 -1.30741 37927 ft 468 kts 31°
2026-04-28 18:52 43.95007 -1.25747 37933 ft 468 kts 31°
2026-04-28 18:53 44.00405 -1.20769 37936 ft 468 kts 31°
2026-04-28 18:53 44.05832 -1.15753 37945 ft 469 kts 31°
2026-04-28 18:54 44.11279 -1.10707 37943 ft 470 kts 31°
2026-04-28 18:54 44.16687 -1.05686 37943 ft 470 kts 31°
2026-04-28 18:55 44.21251 -1.01439 37945 ft 471 kts 31°
2026-04-28 18:55 44.27591 -0.95526 37941 ft 471 kts 31°
2026-04-28 18:56 44.33044 -0.90428 37939 ft 472 kts 31°
2026-04-28 18:56 44.38509 -0.85310 37947 ft 472 kts 31°
2026-04-28 18:57 44.44257 -0.81139 37954 ft 467 kts 20°
2026-04-28 18:57 44.50254 -0.77566 37947 ft 467 kts 19°
2026-04-28 18:58 44.56241 -0.74004 37943 ft 468 kts 20°
2026-04-28 18:58 44.62226 -0.70374 37943 ft 468 kts 20°
2026-04-28 18:59 44.68198 -0.66711 37941 ft 468 kts 20°
2026-04-28 18:59 44.74153 -0.63043 37938 ft 467 kts 20°
2026-04-28 19:00 44.80108 -0.59368 37937 ft 467 kts 20°
2026-04-28 19:00 44.86025 -0.55710 37937 ft 467 kts 20°
2026-04-28 19:01 44.91973 -0.52025 37939 ft 467 kts 20°
2026-04-28 19:01 44.97937 -0.48322 37942 ft 468 kts 20°
2026-04-28 19:02 45.03899 -0.44613 37948 ft 469 kts 20°
2026-04-28 19:02 45.09877 -0.40884 37950 ft 470 kts 20°
2026-04-28 19:03 45.15864 -0.37141 37942 ft 470 kts 20°
2026-04-28 19:03 45.21818 -0.33409 37941 ft 471 kts 20°
2026-04-28 19:04 45.27828 -0.29635 37937 ft 471 kts 20°
2026-04-28 19:04 45.33823 -0.25861 37937 ft 471 kts 20°
2026-04-28 19:05 45.39831 -0.22069 37935 ft 472 kts 20°
2026-04-28 19:05 45.45792 -0.18299 37931 ft 472 kts 20°
2026-04-28 19:06 45.50821 -0.15112 37934 ft 472 kts 20°
2026-04-28 19:06 45.57792 -0.10683 37934 ft 472 kts 20°
2026-04-28 19:07 45.63800 -0.06855 37940 ft 472 kts 20°
2026-04-28 19:07 45.69817 -0.03014 37938 ft 473 kts 20°
2026-04-28 19:08 45.75788 0.00807 37937 ft 473 kts 20°
2026-04-28 19:08 45.81794 0.04659 37944 ft 473 kts 20°
2026-04-28 19:09 45.87806 0.08526 37940 ft 473 kts 20°
2026-04-28 19:09 45.93817 0.12399 37944 ft 473 kts 20°
2026-04-28 19:10 45.99819 0.16277 37950 ft 473 kts 20°
2026-04-28 19:10 46.05818 0.20163 37949 ft 472 kts 20°
2026-04-28 19:11 46.11812 0.24054 37948 ft 473 kts 20°
2026-04-28 19:11 46.17778 0.27936 37953 ft 473 kts 20°
2026-04-28 19:12 46.23782 0.31852 37961 ft 473 kts 20°
2026-04-28 19:12 46.29777 0.35773 37964 ft 473 kts 21°
2026-04-28 19:13 46.35772 0.39702 37970 ft 473 kts 21°
2026-04-28 19:13 46.41773 0.43645 37975 ft 473 kts 21°
2026-04-28 19:14 46.47737 0.47574 37970 ft 473 kts 21°
2026-04-28 19:14 46.53743 0.51539 37964 ft 473 kts 20°
2026-04-28 19:15 46.59920 0.54565 37992 ft 465 kts
2026-04-28 19:15 46.65217 0.56239 37973 ft 465 kts
2026-04-28 19:16 46.72578 0.58541 37980 ft 465 kts
2026-04-28 19:16 46.78898 0.60605 37977 ft 466 kts
2026-04-28 19:17 46.85233 0.62710 37981 ft 466 kts
2026-04-28 19:17 46.91568 0.64819 37981 ft 466 kts
2026-04-28 19:18 46.97893 0.66926 38191 ft 466 kts
2026-04-28 19:18 47.04279 0.69037 38046 ft 476 kts
2026-04-28 19:19 47.10900 0.70023 37991 ft 479 kts
2026-04-28 19:19 47.17551 0.70599 37982 ft 477 kts
2026-04-28 19:20 47.24110 0.71222 37986 ft 475 kts
2026-04-28 19:20 47.30704 0.71906 37997 ft 476 kts
2026-04-28 19:21 47.37318 0.72605 37992 ft 477 kts
2026-04-28 19:21 47.43950 0.73304 38002 ft 477 kts
2026-04-28 19:22 47.48349 0.73806 37997 ft 479 kts
2026-04-28 19:22 47.53745 0.75687 38025 ft 480 kts 16°
2026-04-28 19:22 47.56902 0.77274 37994 ft 479 kts 17°
2026-04-28 19:23 47.63186 0.80519 38001 ft 476 kts 17°
2026-04-28 19:23 47.69476 0.83672 38024 ft 479 kts 16°
2026-04-28 19:24 47.74761 0.86277 38008 ft 481 kts 16°
2026-04-28 19:24 47.81109 0.89413 38011 ft 479 kts 17°
2026-04-28 19:25 47.87414 0.92557 38008 ft 477 kts 17°
2026-04-28 19:25 47.94718 0.96257 38018 ft 476 kts 17°
2026-04-28 19:26 47.99921 0.98899 38019 ft 476 kts 17°
2026-04-28 19:26 48.06226 1.02103 38031 ft 480 kts 17°
2026-04-28 19:27 48.12468 1.05283 38035 ft 483 kts 17°
2026-04-28 19:27 48.18828 1.08531 38018 ft 481 kts 17°
2026-04-28 19:28 48.25126 1.11749 38016 ft 475 kts 17°
2026-04-28 19:28 48.31343 1.14915 38029 ft 473 kts 17°
2026-04-28 19:29 48.36544 1.17570 38026 ft 471 kts 18°
2026-04-28 19:29 48.43761 1.21266 38034 ft 470 kts 18°
2026-04-28 19:30 48.49949 1.24446 38038 ft 470 kts 18°
2026-04-28 19:30 48.56097 1.27610 38045 ft 470 kts 18°
2026-04-28 19:31 48.62320 1.30752 38048 ft 471 kts 18°
2026-04-28 19:31 48.68558 1.33885 38049 ft 472 kts 18°
2026-04-28 19:32 48.74801 1.37038 38051 ft 474 kts 18°
2026-04-28 19:32 48.81058 1.40214 38053 ft 474 kts 18°
2026-04-28 19:33 48.87327 1.43405 38057 ft 475 kts 18°
2026-04-28 19:33 48.93574 1.46649 38052 ft 475 kts 22°
2026-04-28 19:34 48.99186 1.51758 38067 ft 473 kts 40°
2026-04-28 19:34 49.03741 1.58935 38066 ft 471 kts 50°
2026-04-28 19:35 49.08031 1.66473 38059 ft 470 kts 50°
2026-04-28 19:35 49.12335 1.73970 38053 ft 469 kts 49°
2026-04-28 19:36 49.16664 1.81436 38053 ft 468 kts 49°
2026-04-28 19:36 49.20949 1.88824 38052 ft 467 kts 49°
2026-04-28 19:37 49.24548 1.95048 38054 ft 467 kts 50°
2026-04-28 19:37 49.29541 2.03714 38078 ft 466 kts 50°
2026-04-28 19:38 49.33834 2.11186 38075 ft 466 kts 50°
2026-04-28 19:38 49.38096 2.18629 38075 ft 466 kts 50°
2026-04-28 19:39 49.42378 2.26129 38079 ft 466 kts 50°
2026-04-28 19:39 49.46654 2.33642 38073 ft 467 kts 50°
2026-04-28 19:40 49.50927 2.41169 38071 ft 467 kts 50°
2026-04-28 19:40 49.55314 2.48559 38060 ft 469 kts 43°
2026-04-28 19:41 49.60654 2.54350 38076 ft 469 kts 32°
2026-04-28 19:41 49.66228 2.59604 38085 ft 470 kts 32°
2026-04-28 19:42 49.71750 2.64866 38083 ft 470 kts 32°
2026-04-28 19:42 49.76412 2.69386 38093 ft 471 kts 32°
2026-04-28 19:43 49.82858 2.75690 38100 ft 471 kts 32°
2026-04-28 19:43 49.88394 2.81124 38094 ft 469 kts 33°
2026-04-28 19:44 49.93904 2.86542 38118 ft 468 kts 33°
2026-04-28 19:44 49.99391 2.91951 38098 ft 467 kts 33°
2026-04-28 19:45 50.04867 2.97364 38090 ft 466 kts 33°
2026-04-28 19:45 50.10328 3.02778 38094 ft 465 kts 33°
2026-04-28 19:46 50.15756 3.08174 38105 ft 465 kts 33°
2026-04-28 19:46 50.21215 3.13614 38124 ft 465 kts 33°
2026-04-28 19:47 50.26929 3.18305 38142 ft 464 kts 24°
2026-04-28 19:47 50.32874 3.22272 38134 ft 464 kts 24°
2026-04-28 19:48 50.38780 3.26346 38148 ft 463 kts 25°
2026-04-28 19:48 50.44593 3.30688 38089 ft 462 kts 27°
2026-04-28 19:49 50.47468 3.32997 37525 ft 467 kts 27°
2026-04-28 19:49 50.50322 3.35272 36982 ft 463 kts 27°
2026-04-28 19:49 50.53220 3.37487 36389 ft 462 kts 25°
2026-04-28 19:49 50.56160 3.39549 35762 ft 462 kts 23°
2026-04-28 19:50 50.62068 3.43518 34446 ft 463 kts 23°
2026-04-28 19:50 50.65041 3.45522 33674 ft 464 kts 24°
2026-04-28 19:50 50.67995 3.47535 33183 ft 458 kts 24°
2026-04-28 19:51 50.70899 3.49530 32630 ft 453 kts 25°
2026-04-28 19:51 50.73766 3.51511 32182 ft 447 kts 25°
2026-04-28 19:51 50.76601 3.53475 31682 ft 442 kts 25°
2026-04-28 19:51 50.79404 3.55421 31198 ft 437 kts 25°
2026-04-28 19:52 50.82163 3.57338 30786 ft 431 kts 25°
2026-04-28 19:52 50.84869 3.59218 30297 ft 428 kts 25°
2026-04-28 19:52 50.87582 3.61105 29766 ft 423 kts 25°
2026-04-28 19:52 50.90317 3.62796 29231 ft 420 kts 19°
2026-04-28 19:53 50.93143 3.63827 28858 ft 414 kts 10°
2026-04-28 19:53 50.95990 3.64161 28581 ft 406 kts
2026-04-28 19:53 50.98803 3.64313 28143 ft 402 kts
2026-04-28 19:53 51.01585 3.64440 27699 ft 398 kts
2026-04-28 19:54 51.04341 3.64578 27224 ft 395 kts
2026-04-28 19:54 51.07075 3.64732 26757 ft 391 kts
2026-04-28 19:54 51.09790 3.64898 26312 ft 388 kts
2026-04-28 19:54 51.12480 3.65071 25870 ft 386 kts
2026-04-28 19:55 51.15128 3.65244 25424 ft 383 kts
2026-04-28 19:55 51.17786 3.65419 24987 ft 381 kts
2026-04-28 19:55 51.20428 3.65592 24544 ft 379 kts
2026-04-28 19:55 51.23063 3.65764 24109 ft 377 kts
2026-04-28 19:56 51.25692 3.65842 23644 ft 376 kts
2026-04-28 19:56 51.28306 3.65775 23140 ft 375 kts
2026-04-28 19:56 51.30901 3.65663 22673 ft 372 kts
2026-04-28 19:56 51.33445 3.65548 22243 ft 368 kts
2026-04-28 19:57 51.36004 3.65441 21802 ft 366 kts
2026-04-28 19:57 51.38535 3.65346 21367 ft 363 kts
2026-04-28 19:57 51.41057 3.65285 20902 ft 360 kts
2026-04-28 19:57 51.43517 3.65933 20152 ft 357 kts 20°
2026-04-28 19:58 51.45808 3.67415 19417 ft 355 kts 30°
2026-04-28 19:58 51.47918 3.69434 18754 ft 352 kts 34°
2026-04-28 19:58 51.49986 3.71518 17972 ft 351 kts 34°
2026-04-28 19:58 51.52040 3.73603 17399 ft 345 kts 34°
2026-04-28 19:59 51.54066 3.75656 16940 ft 343 kts 34°
2026-04-28 19:59 51.56077 3.77687 16513 ft 340 kts 34°
2026-04-28 19:59 51.58077 3.79701 16092 ft 337 kts 34°
2026-04-28 19:59 51.60062 3.81696 15694 ft 335 kts 34°
2026-04-28 20:00 51.62020 3.83664 15273 ft 327 kts 34°
2026-04-28 20:00 51.63941 3.85593 14591 ft 326 kts 34°
2026-04-28 20:00 51.65864 3.87528 13874 ft 325 kts 34°
2026-04-28 20:00 51.67743 3.89419 13176 ft 321 kts 34°
2026-04-28 20:01 51.69633 3.91322 12499 ft 318 kts 34°
2026-04-28 20:01 51.71500 3.93204 11830 ft 314 kts 34°
2026-04-28 20:01 51.73348 3.95070 11191 ft 311 kts 34°
2026-04-28 20:01 51.75160 3.96899 10791 ft 301 kts 34°
2026-04-28 20:02 51.76893 3.98648 10526 ft 288 kts 34°
2026-04-28 20:02 51.78542 4.00314 10372 ft 272 kts 34°
2026-04-28 20:02 51.80102 4.01893 10225 ft 258 kts 34°
2026-04-28 20:02 51.81607 4.03420 9940 ft 250 kts 35°
2026-04-28 20:03 51.83057 4.04892 9678 ft 243 kts 35°
2026-04-28 20:03 51.84464 4.06322 9445 ft 241 kts 35°
2026-04-28 20:03 51.85883 4.07766 9185 ft 240 kts 35°
2026-04-28 20:03 51.87294 4.09200 8930 ft 239 kts 35°
2026-04-28 20:04 51.88701 4.10631 8677 ft 238 kts 35°
2026-04-28 20:04 51.90098 4.12054 8425 ft 236 kts 35°
2026-04-28 20:04 51.91479 4.13484 8199 ft 234 kts 38°
2026-04-28 20:04 51.92747 4.15065 8040 ft 228 kts 41°
2026-04-28 20:05 51.94036 4.16569 7779 ft 230 kts 26°
2026-04-28 20:05 51.95597 4.17213 7585 ft 233 kts 13°
2026-04-28 20:05 51.97216 4.17632 7343 ft 236 kts 12°
2026-04-28 20:05 51.98818 4.18026 7083 ft 236 kts 12°
2026-04-28 20:06 52.00442 4.18415 6868 ft 231 kts 12°
2026-04-28 20:06 52.01986 4.18772 6793 ft 216 kts 12°
2026-04-28 20:06 52.03413 4.19090 6678 ft 199 kts 12°
2026-04-28 20:06 52.04751 4.19376 6430 ft 191 kts 12°
2026-04-28 20:07 52.06062 4.19652 6060 ft 190 kts 12°
2026-04-28 20:07 52.06930 4.19833 5802 ft 190 kts 13°
2026-04-28 20:07 52.08338 4.21177 5340 ft 176 kts 62°
2026-04-28 20:07 52.09025 4.22876 5119 ft 185 kts 56°
2026-04-28 20:08 52.09787 4.24565 4872 ft 185 kts 57°
2026-04-28 20:08 52.10511 4.26273 4611 ft 182 kts 59°
2026-04-28 20:08 52.11194 4.27953 4363 ft 180 kts 60°
2026-04-28 20:08 52.11867 4.29647 4109 ft 177 kts 61°
2026-04-28 20:09 52.12521 4.31314 3875 ft 172 kts 62°
2026-04-28 20:09 52.12943 4.32398 3692 ft 171 kts 62°
2026-04-28 20:09 52.13573 4.34017 3456 ft 168 kts 63°
2026-04-28 20:09 52.14229 4.35577 3194 ft 166 kts 60°
2026-04-28 20:10 52.14877 4.37103 2970 ft 162 kts 61°
2026-04-28 20:10 52.15680 4.39106 2678 ft 157 kts 62°
2026-04-28 20:10 52.16066 4.40095 2533 ft 154 kts 63°
2026-04-28 20:10 52.16826 4.42069 2249 ft 154 kts 62°
2026-04-28 20:11 52.17211 4.43077 2116 ft 155 kts 62°
2026-04-28 20:11 52.17765 4.44528 2017 ft 153 kts 62°
2026-04-28 20:11 52.18329 4.46011 1993 ft 154 kts 62°
2026-04-28 20:11 52.18891 4.47482 1988 ft 153 kts 62°
2026-04-28 20:12 52.19458 4.48971 1989 ft 156 kts 63°
2026-04-28 20:12 52.20030 4.50477 1987 ft 155 kts 63°
2026-04-28 20:12 52.20577 4.51908 1970 ft 143 kts 63°
2026-04-28 20:12 52.21086 4.53243 1985 ft 136 kts 63°
2026-04-28 20:13 52.21582 4.54548 1988 ft 135 kts 63°
2026-04-28 20:13 52.22076 4.55841 1980 ft 133 kts 63°
2026-04-28 20:13 52.22564 4.57124 1989 ft 133 kts 63°
2026-04-28 20:13 52.23047 4.58391 1980 ft 133 kts 63°
2026-04-28 20:14 52.23537 4.59671 1977 ft 135 kts 63°
2026-04-28 20:14 52.24036 4.60978 1831 ft 135 kts 62°
2026-04-28 20:14 52.24527 4.62262 1664 ft 132 kts 63°
2026-04-28 20:14 52.25017 4.63546 1474 ft 134 kts 62°
2026-04-28 20:15 52.25517 4.64854 1294 ft 136 kts 61°
2026-04-28 20:15 52.26014 4.66154 1093 ft 132 kts 60°
2026-04-28 20:15 52.26486 4.67386 914 ft 125 kts 60°
2026-04-28 20:15 52.26948 4.68614 703 ft 132 kts 59°
2026-04-28 20:16 52.27454 4.69925 548 ft 136 kts 60°
2026-04-28 20:16 52.27956 4.71250 361 ft 139 kts 57°
2026-04-28 20:16 52.28468 4.72579 182 ft 138 kts 57°
2026-04-28 20:16 52.28977 4.73900 16 ft 138 kts 57°
2026-04-28 20:17 52.29427 4.75069 -3 ft 95 kts 58°
2026-04-28 20:17 52.29667 4.75677 -3 ft 33 kts 47°
2026-04-28 20:17 52.29819 4.75836 -2 ft 19 kts 27°
2026-04-28 20:17 52.29894 4.75900 -2 ft 10 kts 27°
2026-04-28 20:18 52.29956 4.75952 -2 ft 11 kts 23°
2026-04-28 20:18 52.30015 4.75951 -2 ft 13 kts 334°
2026-04-28 20:18 52.30102 4.76018 -2 ft 12 kts 58°
2026-04-28 20:18 52.30147 4.76137 -2 ft 12 kts 58°
2026-04-28 20:19 52.30191 4.76252 -2 ft 12 kts 58°
2026-04-28 20:19 52.30238 4.76373 -2 ft 13 kts 58°
2026-04-28 20:19 52.30283 4.76495 -2 ft 12 kts 57°
2026-04-28 20:19 52.30325 4.76601 -2 ft 11 kts 58°
2026-04-28 20:20 52.30365 4.76704 -2 ft 11 kts 58°
2026-04-28 20:20 52.30403 4.76805 -2 ft 10 kts 59°
2026-04-28 20:20 52.30436 4.76893 -2 ft 7 kts 50°
2026-04-28 20:20 52.30455 4.76893 -2 ft 2 kts 326°
2026-04-28 20:21 52.30482 4.76847 -2 ft 7 kts 314°
2026-04-28 20:21 52.30501 4.76814 -2 ft 2 kts 314°
2026-04-28 20:21 52.30506 4.76806 -2 ft 0 kts 314°